South St. Paul, MN

4:10 PM CDT on July 20, 2017 (GMT -0500)
South Saint Paul Municipal-Fleming

Weather History for KSGS - October, 2012

Change the Weather History Date:

Friday, October 5, 2012

  Actual Average (KSTP) Record (KSTP)
Temperature  
Mean Temperature 42 °F -  
Max Temperature 48 °F 63 °F 89 °F (2011)
Min Temperature 37 °F 41 °F 30 °F (2004)
Degree Days  
Heating Degree Days 22    
Moisture  
Dew Point 27 °F    
Average Humidity 54    
Maximum Humidity 69    
Minimum Humidity 41    
Precipitation  
Precipitation 0.00 in - - ()
Sea Level Pressure  
Sea Level Pressure 30.12 in    
Wind  
Wind Speed 14 mph (WNW)    
Max Wind Speed 24 mph    
Max Gust Speed 31 mph    
Visibility 10 miles    
Events      
Averages and records for this station are not official NWS values.
T = Trace of Precipitation, MM = Missing Value Source: NWS Daily Summary

Daily Weather History Graph

Daily Weather History Graph

Search for Another Location

Airport or City:

Trip Planner

Search our weather history database for the weather conditions in past years. The results will help you decide how hot, cold, wet, or windy it might be!

Date:

Astronomy

Oct. 05, 2012 Rise Set
Actual Time 7:15 AM CDT 6:44 PM CDT
Civil Twilight 6:46 AM CDT 7:13 PM CDT
Nautical Twilight 6:12 AM CDT 7:47 PM CDT
Astronomical Twilight 5:38 AM CDT 8:21 PM CDT
Moon 9:56 PM CDT (10/5) 12:35 PM CDT (10/5)
Length of Visible Light 12h 27m
Length of Day
11h 28m
Waning Gibbous, 74% of the Moon is Illuminated
Oct 5
Waning Gibbous
Oct 8
Last Quarter
Oct 15
New
Oct 21
First Quarter
Oct 29
Full

Hourly Weather History & Observations

Time (CDT) Temp. Windchill Dew Point Humidity Pressure Visibility Wind Dir Wind Speed Gust Speed Precip Events Conditions
12:12 AM 43.7 °F 37.7 °F 28.9 °F 56% 30.14 in 10.0 mi WNW 11.5 mph 20.7 mph N/A   Mostly Cloudy
12:32 AM 43.7 °F 37.7 °F 29.3 °F 57% 30.14 in 10.0 mi WNW 11.5 mph - N/A   Overcast
12:52 AM 43.7 °F 37.7 °F 29.8 °F 58% 30.14 in 10.0 mi West 11.5 mph 21.9 mph N/A   Mostly Cloudy
1:12 AM 43.7 °F 36.9 °F 30.2 °F 59% 30.14 in 10.0 mi West 13.8 mph 21.9 mph N/A   Mostly Cloudy
1:32 AM 43.7 °F 36.3 °F 29.1 °F 57% 30.14 in 10.0 mi West 16.1 mph 25.3 mph N/A   Overcast
1:52 AM 43.7 °F 36.6 °F 28.6 °F 55% 30.14 in 10.0 mi West 15.0 mph 26.5 mph N/A   Overcast
2:12 AM 43.3 °F 36.1 °F 29.3 °F 58% 30.14 in 10.0 mi WNW 15.0 mph 20.7 mph N/A   Overcast
2:32 AM 43.2 °F 36.2 °F 28.4 °F 56% 30.14 in 10.0 mi WNW 13.8 mph 26.5 mph N/A   Overcast
2:52 AM 43.2 °F 36.2 °F 27.5 °F 54% 30.13 in 10.0 mi WNW 13.8 mph 27.6 mph N/A   Overcast
3:12 AM 43.2 °F 35.9 °F 28.0 °F 55% 30.12 in 10.0 mi WNW 15.0 mph 23.0 mph N/A   Overcast
3:32 AM 43.2 °F 38.4 °F 28.4 °F 56% 30.12 in 10.0 mi WNW 8.1 mph 17.3 mph N/A   Overcast
3:52 AM 42.3 °F 35.1 °F 28.9 °F 59% 30.12 in 10.0 mi WNW 13.8 mph 19.6 mph N/A   Scattered Clouds
4:12 AM 42.3 °F 34.4 °F 27.9 °F 57% 30.13 in 10.0 mi West 16.1 mph 23.0 mph N/A   Mostly Cloudy
4:32 AM 41.2 °F 32.4 °F 25.7 °F 54% 30.13 in 10.0 mi WNW 18.4 mph 27.6 mph N/A   Scattered Clouds
4:52 AM 40.3 °F 31.6 °F 26.1 °F 57% 30.13 in 10.0 mi West 17.3 mph 24.2 mph N/A   Clear
5:12 AM 39.9 °F 32.1 °F 26.4 °F 59% 30.12 in 10.0 mi West 13.8 mph 21.9 mph N/A   Clear
5:32 AM 39.6 °F 32.1 °F 26.6 °F 60% 30.12 in 10.0 mi West 12.7 mph - N/A   Clear
5:52 AM 39.2 °F 32.0 °F 27.0 °F 62% 30.12 in 10.0 mi West 11.5 mph - N/A   Clear
6:12 AM 39.2 °F 32.0 °F 27.0 °F 62% 30.12 in 10.0 mi WNW 11.5 mph 18.4 mph N/A   Clear
6:32 AM 38.7 °F 33.6 °F 27.3 °F 64% 30.12 in 10.0 mi West 6.9 mph 17.3 mph N/A   Clear
6:52 AM 38.3 °F 32.5 °F 27.1 °F 64% 30.12 in 10.0 mi West 8.1 mph - N/A   Clear
7:12 AM 37.8 °F 30.7 °F 27.7 °F 67% 30.13 in 10.0 mi West 10.4 mph 17.3 mph N/A   Clear
7:32 AM 37.0 °F 29.3 °F 27.9 °F 69% 30.13 in 10.0 mi West 11.5 mph - N/A   Clear
7:52 AM 37.4 °F 29.8 °F 28.0 °F 69% 30.13 in 10.0 mi West 11.5 mph - N/A   Clear
8:12 AM 37.4 °F 29.8 °F 28.0 °F 69% 30.13 in 10.0 mi West 11.5 mph 19.6 mph N/A   Clear
8:32 AM 37.9 °F 28.9 °F 28.0 °F 68% 30.13 in 10.0 mi West 16.1 mph 24.2 mph N/A   Clear
8:52 AM 38.3 °F 30.9 °F 27.9 °F 66% 30.14 in 10.0 mi West 11.5 mph 18.4 mph N/A   Clear
9:12 AM 39.2 °F 31.6 °F 27.9 °F 64% 30.14 in 10.0 mi West 12.7 mph 17.3 mph N/A   Clear
9:32 AM 39.9 °F 33.4 °F 27.9 °F 62% 30.14 in 10.0 mi West 10.4 mph - N/A   Clear
9:52 AM 40.1 °F 32.0 °F 27.5 °F 61% 30.13 in 10.0 mi WNW 15.0 mph 20.7 mph N/A   Clear
10:12 AM 41.4 °F 33.6 °F 27.7 °F 58% 30.13 in 10.0 mi WNW 15.0 mph 21.9 mph N/A   Clear
10:32 AM 41.4 °F 33.3 °F 27.3 °F 57% 30.13 in 10.0 mi West 16.1 mph 23.0 mph N/A   Clear
10:52 AM 42.8 °F 34.3 °F 27.0 °F 54% 30.13 in 10.0 mi WNW 19.6 mph 24.2 mph N/A   Scattered Clouds
11:12 AM 43.0 °F 35.7 °F 26.1 °F 51% 30.12 in 10.0 mi WNW 15.0 mph 27.6 mph N/A   Scattered Clouds
11:32 AM 43.3 °F 35.5 °F 26.2 °F 51% 30.12 in 10.0 mi NW 17.3 mph 26.5 mph N/A   Scattered Clouds
11:52 AM 45.1 °F 38.4 °F 26.1 °F 47% 30.12 in 10.0 mi WNW 15.0 mph 24.2 mph N/A   Scattered Clouds
12:12 PM 44.8 °F 38.3 °F 25.9 °F 48% 30.12 in 10.0 mi WNW 13.8 mph 28.8 mph N/A   Scattered Clouds
12:32 PM 45.5 °F 39.2 °F 25.5 °F 46% 30.11 in 10.0 mi NW 13.8 mph 27.6 mph N/A   Scattered Clouds
12:52 PM 46.0 °F 39.0 °F 25.5 °F 45% 30.11 in 10.0 mi WNW 17.3 mph 26.5 mph N/A   Scattered Clouds
1:32 PM 47.3 °F - 25.2 °F 42% 30.11 in 10.0 mi WNW 16.1 mph 25.3 mph N/A   Mostly Cloudy
1:52 PM 47.5 °F - 25.2 °F 42% 30.10 in 10.0 mi WNW 18.4 mph 27.6 mph N/A   Scattered Clouds
2:12 PM 47.3 °F - 25.0 °F 42% 30.10 in 10.0 mi West 20.7 mph 26.5 mph N/A   Mostly Cloudy
2:32 PM 48.0 °F - 25.0 °F 41% 30.09 in 10.0 mi West 20.7 mph 24.2 mph N/A   Mostly Cloudy
2:52 PM 46.8 °F - 24.8 °F 42% 30.09 in 10.0 mi NW 18.4 mph 25.3 mph N/A   Mostly Cloudy
3:12 PM 46.4 °F 38.1 °F 24.8 °F 43% 30.10 in 10.0 mi WNW 24.2 mph 31.1 mph N/A   Mostly Cloudy
3:32 PM 46.2 °F 39.0 °F 25.2 °F 44% 30.10 in 10.0 mi NW 18.4 mph 27.6 mph N/A   Overcast
3:52 PM 45.7 °F 38.6 °F 25.3 °F 45% 30.10 in 10.0 mi WNW 17.3 mph 28.8 mph N/A   Overcast
4:12 PM 45.3 °F 37.8 °F 24.8 °F 45% 30.10 in 10.0 mi WNW 18.4 mph 28.8 mph N/A   Overcast
4:32 PM 44.6 °F 36.6 °F 24.8 °F 46% 30.10 in 10.0 mi NW 19.6 mph 25.3 mph N/A   Overcast
4:52 PM 44.4 °F 37.2 °F 24.8 °F 46% 30.10 in 10.0 mi WNW 16.1 mph 27.6 mph N/A   Overcast
5:12 PM 44.1 °F 37.4 °F 24.8 °F 47% 30.11 in 10.0 mi WNW 13.8 mph 28.8 mph N/A   Overcast
5:32 PM 43.7 °F 36.0 °F 25.0 °F 48% 30.11 in 10.0 mi WNW 17.3 mph 27.6 mph N/A   Overcast
5:52 PM 43.7 °F 36.6 °F 25.3 °F 48% 30.12 in 10.0 mi WNW 15.0 mph 24.2 mph N/A   Overcast
6:12 PM 43.0 °F 36.4 °F 25.5 °F 50% 30.12 in 10.0 mi WNW 12.7 mph 26.5 mph N/A   Overcast
6:32 PM 42.8 °F 36.2 °F 25.7 °F 51% 30.12 in 10.0 mi WNW 12.7 mph 23.0 mph N/A   Overcast
6:52 PM 42.8 °F 36.2 °F 25.7 °F 51% 30.12 in 10.0 mi WNW 12.7 mph 20.7 mph N/A   Overcast
7:12 PM 42.8 °F 36.6 °F 25.5 °F 51% 30.12 in 10.0 mi WNW 11.5 mph 19.6 mph N/A   Overcast
7:32 PM 42.8 °F 35.4 °F 25.5 °F 51% 30.12 in 10.0 mi WNW 15.0 mph 21.9 mph N/A   Overcast
7:52 PM 42.8 °F 36.2 °F 25.7 °F 51% 30.13 in 10.0 mi WNW 12.7 mph 20.7 mph N/A   Overcast
8:12 PM 42.4 °F 36.1 °F 25.9 °F 52% 30.13 in 10.0 mi NW 11.5 mph 21.9 mph N/A   Overcast
8:32 PM 42.4 °F 36.1 °F 25.9 °F 52% 30.13 in 10.0 mi NW 11.5 mph 19.6 mph N/A   Overcast
8:52 PM 42.3 °F 37.3 °F 26.4 °F 54% 30.13 in 10.0 mi WNW 8.1 mph 16.1 mph N/A   Overcast
9:12 PM 42.3 °F 34.1 °F 26.2 °F 53% 30.13 in 10.0 mi WNW 17.3 mph 21.9 mph N/A   Overcast
9:32 PM 42.3 °F 33.8 °F 25.7 °F 52% 30.14 in 10.0 mi NW 18.4 mph - N/A   Overcast
9:52 PM 42.1 °F 35.2 °F 26.1 °F 53% 30.14 in 10.0 mi NW 12.7 mph 18.4 mph N/A   Overcast
10:12 PM 41.9 °F 34.6 °F 26.4 °F 54% 30.14 in 10.0 mi NW 13.8 mph 19.6 mph N/A   Overcast
10:32 PM 41.4 °F 33.6 °F 25.9 °F 54% 30.14 in 10.0 mi NW 15.0 mph 21.9 mph N/A   Overcast
10:52 PM 41.0 °F 34.3 °F 26.4 °F 56% 30.14 in 10.0 mi NW 11.5 mph 18.4 mph N/A   Overcast
11:32 PM 39.6 °F 31.0 °F 25.7 °F 58% 30.14 in 10.0 mi NW 16.1 mph 20.7 mph N/A   Mostly Cloudy
11:52 PM 39.4 °F 31.4 °F 25.7 °F 58% 30.14 in 10.0 mi NW 13.8 mph - N/A   Overcast